Other Public Products
Issued by NWS Grand Forks, ND

Home | Current Version | Previous Version | Graphics & Text | Print | Product List | Glossary On
Versions: 1 2 3 4 5 6 7 8 9 10 11 12 13 14 15 16 17 18 19 20 21 22 23 24 25 26 27 28 29 30 31 32 33 34 35 36 37 38 39 40 41 42 43 44 45 46 47 48 49 50
000
FPUS83 KFGF 241831
OPUFGF
PRAIRIE TO PINES WEATHER ROUNDUP
NATIONAL WEATHER SERVICE EASTERN NORTH DAKOTA/GRAND FORKS ND
1200 PM CST TUE JAN 24 2017

 **SATELLITE DATA USED TO AUGMENT SKY COVER AT AUTOMATED STATIONS**
 *****  WEATHER ACROSS EASTERN NORTH DAKOTA  *****

CITY           SKY/WX    TMP DP  RH WIND       PRES   REMARKS
GRAND FORKS    CLOUDY    29  21  72 NW7       29.87F WCI  22
6HR MIN TEMP:  26; 6HR MAX TEMP:  28;

GRAND FORKS AF CLOUDY    27  21  80 NW8       29.86F WCI  18
GRAND CITY NWS NOT AVBL
BUXTON           N/A     28  25  89 W5          N/A  WCI  22
DEVILS LAKE    CLOUDY    22  19  89 W10       29.86F WCI  11
6HR MIN TEMP:  20; 6HR MAX TEMP:  23;

FARGO          CLOUDY    28  22  78 NW6       29.89F WCI  22
6HR MIN TEMP:  28; 6HR MAX TEMP:  31;

WAHPETON ARPT  CLOUDY    30  27  86 N8        29.87F WCI  23
$$

 *****  WEATHER ACROSS CENTRAL AND WESTERN NORTH DAKOTA  *****

CITY           SKY/WX    TMP DP  RH WIND       PRES   REMARKS
JAMESTOWN      CLOUDY    24  19  81 NW12      29.85F WCI  13
6HR MIN TEMP:  22; 6HR MAX TEMP:  24;

BISMARCK       CLOUDY    26  18  71 NW10      29.90S WCI  16
6HR MIN TEMP:  24; 6HR MAX TEMP:  26;

MINOT          CLOUDY    23  17  78 W12       29.87F WCI  12
6HR MIN TEMP:  22; 6HR MAX TEMP:  24;

MINOT AFB      CLOUDY    21  16  81 NW18      29.86F WCI   6
6HR MIN TEMP:  20; 6HR MAX TEMP:  21;

GARRISON         N/A     23  18  81 NW13      29.87S WCI  11
6HR MIN TEMP:  21; 6HR MAX TEMP:  23;

WILLISTON      LGT SNOW  20  15  81 NW7       29.92S WCI  11
6HR MIN TEMP:  19; 6HR MAX TEMP:  21; 6HR PCP: TRACE;

DICKINSON      CLOUDY    21  15  78 NW12      29.84S WCI   9
6HR MIN TEMP:  19; 6HR MAX TEMP:  21;

HETTINGER      CLOUDY    20  17  88 N12       29.87S WCI   8
6HR MIN TEMP:  20; 6HR MAX TEMP:  21;

$$

 *****  OTHER OBSERVATIONS NORTHEAST NORTH DAKOTA  *****

CITY           SKY/WX    TMP DP  RH WIND       PRES   REMARKS
WALHALLA       NOT AVBL
LANGDON        NOT AVBL
CAVALIER       CLOUDY    28  23  80 NW7       29.86F WCI  21
GRAFTON        CLOUDY    27  25  93 W5        29.88F WCI  21
CANDO          NOT AVBL
FORT TOTTEN    NOT AVBL
ROLLA            N/A    N/A N/A N/A MISG        N/A
RUGBY            N/A     21  19  93 NW15      29.85F WCI   8
 ***** THE ABOVE OBSERVATIONS ARE NON NWS ARE NOT QUALITY
        CONTROLLED AND MAY MIS-REPORT RAIN FOR SNOW...
$$

 *****  OTHER OBSERVATIONS SOUTHEAST NORTH DAKOTA *****

CITY           SKY/WX    TMP DP  RH WIND       PRES   REMARKS
COOPERSTOWN    CLOUDY    25  21  86 NW9G16    29.86F WCI  15
VALLEY CITY    CLOUDY    25  25 100 NW7       29.87F WCI  17
OAKES          NOT AVBL
GWINNER        CLOUDY    30  28  93 N9        29.86F WCI  22
SHEYENNE NWR     N/A     28  22  78 N6        29.95S WCI  22
BUFFALO          N/A     26  17  68 W5          N/A  WCI  20
WYNDMERE         N/A     28  27  93 VRB9        N/A  WCI  20
 ***** THE ABOVE OBSERVATIONS ARE NON NWS ARE NOT QUALITY
       CONTROLLED AND MAY MIS-REPORT RAIN FOR SNOW...
$$

  *****  WEATHER ACROSS NORTHERN MINNESOTA  *****

CITY           SKY/WX    TMP DP  RH WIND       PRES   REMARKS
FLAG ISLAND    CLOUDY    27  23  86 S9        29.84S WCI  17
WARROAD        CLOUDY    27  21  80 SW8       29.86F WCI  18
ROSEAU         FAIR      27  21  80 SW9       29.86F WCI  17
HALLOCK        CLOUDY    28  25  86 SW5       29.87S WCI  23
THF RVR FALLS  CLOUDY    25  21  85 W6        29.87F WCI  18
6HR MIN TEMP:  23; 6HR MAX TEMP:  25;

HALSTAD          N/A     26  21  80 W3          N/A
FOSSTON        CLOUDY    25  21  86 SW6       29.86F WCI  18
BAUDETTE       CLOUDY    25  21  85 S7        29.85F WCI  17
6HR MIN TEMP:  23; 6HR MAX TEMP:  25;

WASKISH        CLOUDY    27  21  80 W7        29.86F WCI  19
CROOKSTON      CLOUDY    27  21  80 W3        29.88F
$$
  *****  WEATHER ACROSS CENTRAL AND WEST MINNESOTA  *****

CITY           SKY/WX    TMP DP  RH WIND       PRES   REMARKS
BEMIDJI        CLOUDY    28  24  86 W6        29.85F WCI  21
PARK RAPIDS    CLOUDY    29  22  75 CALM      29.84F
6HR MIN TEMP:  28; 6HR MAX TEMP:  30;

WADENA         CLOUDY    28  25  86 N3        29.84F
DETROIT LAKES  CLOUDY    28  27  93 N6        29.86F WCI  22
MOORHEAD       CLOUDY    27  21  80 NW6       29.90S WCI  20
FERGUS FALLS   CLOUDY    30  27  86 N6        29.89F WCI  24
ELBOW LAKE     MOCLDY    31  27  84 E3        29.85F HAZE
6HR MIN TEMP:  29; 6HR MAX TEMP:  31;

MORRIS MN      CLOUDY    34  27  75 CALM      29.83F
STAPLES        CLOUDY    30  25  80 CALM      29.84F
WHEATON        FAIR      30  27  86 N7        29.87F WCI  23
$$
  *****  WEATHER ELSEWHERE ACROSS MINNESOTA  *****

CITY           SKY/WX    TMP DP  RH WIND       PRES   REMARKS
DULUTH         CLOUDY    31  25  78 VRB7      29.83F WCI  24
6HR MIN TEMP:  30; 6HR MAX TEMP:  31;

INTRNTL FALLS  CLOUDY    28  22  78 W5        29.85F WCI  23
6HR MIN TEMP:  27; 6HR MAX TEMP:  28;

ELY            CLOUDY    28  27  93 W3        29.82F
CLOQUET        CLOUDY    30  25  80 N3        29.84F
BRAINERD       CLOUDY    30  24  78 CALM      29.85F
6HR MIN TEMP:  29; 6HR MAX TEMP:  30;

HIBBING        CLOUDY    27  24  89 W6        29.85F WCI  20
6HR MIN TEMP:  27; 6HR MAX TEMP:  29;

ALEXANDRIA     CLOUDY    31  25  78 E6        29.83F
6HR MIN TEMP:  29; 6HR MAX TEMP:  31;

SAINT CLOUD    CLOUDY    31  25  78 NE7       29.84F WCI  24
6HR MIN TEMP:  30; 6HR MAX TEMP:  32;

MINNEAPOLIS    CLOUDY    32  25  75 E5        29.87F
6HR MIN TEMP:  32; 6HR MAX TEMP:  32;

$$

  *****  WEATHER ACROSS SOUTH DAKOTA  *****

CITY           SKY/WX    TMP DP  RH WIND       PRES   REMARKS
SIOUX FALLS    CLOUDY    31  30  96 E16       29.77S WCI  20
6HR MIN TEMP:  31; 6HR MAX TEMP:  32;

BROOKINGS      CLOUDY    28  27  93 E12       29.78F WCI  18
WATERTOWN      CLOUDY    28  26  92 E13       29.79F WCI  17
6HR MIN TEMP:  27; 6HR MAX TEMP:  28;

HURON          CLOUDY    31  29  92 E13       29.79S WCI  21
6HR MIN TEMP:  30; 6HR MAX TEMP:  31;

SISSETON         N/A     32  29  88 NE7       29.84F
ABERDEEN       LGT SNOW  29  25  85 NE13      29.84F FOG     WCI  19
6HR MIN TEMP:  27; 6HR MAX TEMP:  29; 6HR PCP:  0.01;

MITCHELL       CLOUDY    33  31  92 E15       29.77S WCI  23
PIERRE         SNOW      27  26  96 NE15      29.77F VSB 1/2 WCI  15
6HR MIN TEMP:  27; 6HR MAX TEMP:  28; 6HR PCP:  0.01;

MOBRIDGE       LGT SNOW  25  18  74 N16       29.82F WCI  12
RAPID CITY     LGT SNOW  21  18  88 NW18      29.78S VSB 3/4 WCI   6
6HR MIN TEMP:  20; 6HR MAX TEMP:  22; 6HR PCP:  0.07;

$$

  *****  SOME WEATHER IN NEARBY STATES *****

CITY           SKY/WX    TMP DP  RH WIND       PRES   REMARKS
GLASGOW MT     LGT SNOW  19  14  81 NW9       29.93R WCI   8
6HR MIN TEMP:  18; 6HR MAX TEMP:  20; 6HR PCP:  0.01;

GREAT FALLS MT FAIR      18  12  77 SW9       29.89R WCI   7
6HR MIN TEMP:   5; 6HR MAX TEMP:  18;

CHEYENNE WY    FRZ RAIN  17  14  88 N18G30    29.59F WCI   1
6HR MIN TEMP:  17; 6HR MAX TEMP:  25;

SCOTTSBLUFF NE CLOUDY    22  16  78 N15       29.70S HAZE    WCI   9
6HR MIN TEMP:  21; 6HR MAX TEMP:  23; 6HR PCP:  0.18;

OMAHA NE       FLURRIES  34  28  79 E12G18    29.64F
6HR MIN TEMP:  30; 6HR MAX TEMP:  34; 6HR PCP: TRACE;

DES MOINES IA  CLOUDY    32  29  88 E13G20    29.78F FOG     WCI  22
6HR MIN TEMP:  32; 6HR MAX TEMP:  33;

DAVENPORT IA   CLOUDY    36  31  82 SE9       29.86F
6HR MIN TEMP:  32; 6HR MAX TEMP:  36;

CHICAGO IL     CLOUDY    35  31  85 NW6       29.86F
6HR MIN TEMP:  34; 6HR MAX TEMP:  36;

EAU CLAIRE WI  CLOUDY    33  30  88 S3        29.85F
6HR MIN TEMP:  31; 6HR MAX TEMP:  33;

LA CROSSE WI   CLOUDY    37  30  75 N3        29.86F
6HR MIN TEMP:  34; 6HR MAX TEMP:  37;

$$

  *****  SOME NATIONAL WEATHER *****

CITY           SKY/WX    TMP DP  RH WIND       PRES   REMARKS
LA GUARDIA NY  RAIN      39  35  86 N15G24    29.31S FOG


USA.gov is the U.S. government's official web portal to all federal, state and local government web resources and services.